Time,TemperatureF,DewpointF,PressureIn,WindDirection,WindDirectionDegrees,WindSpeedMPH,WindSpeedGustMPH,Humidity,HourlyPrecipIn,Conditions,Clouds,dailyrainin,SolarRadiationWatts/m^2,SoftwareType,DateUTC
2013-07-12 00:02:00,72.9,63.7,29.88,WSW,257,0.0,3.0,73,0.00,,,0.00,0.0,meteohub,2013-07-12 05:02:00,
2013-07-12 00:07:00,72.5,64.0,29.88,WNW,296,1.0,6.0,75,0.00,,,0.00,0.0,meteohub,2013-07-12 05:07:00,
2013-07-12 00:12:00,72.5,64.6,29.88,NNW,337,0.0,6.0,76,0.00,,,0.00,0.0,meteohub,2013-07-12 05:12:00,
2013-07-12 00:17:00,72.3,63.9,29.88,NE,55,0.0,3.0,75,0.00,,,0.00,0.0,meteohub,2013-07-12 05:17:00,
2013-07-12 00:22:00,72.1,63.9,29.88,SSW,209,1.0,3.0,75,0.00,,,0.00,0.0,meteohub,2013-07-12 05:22:00,
2013-07-12 00:27:00,72.1,63.9,29.88,East,82,0.0,3.0,75,0.00,,,0.00,0.0,meteohub,2013-07-12 05:27:00,
2013-07-12 00:32:00,72.0,64.0,29.89,East,82,0.0,3.0,76,0.00,,,0.00,0.0,meteohub,2013-07-12 05:32:00,
2013-07-12 00:37:00,71.6,64.0,29.89,East,85,0.0,3.0,77,0.00,,,0.00,0.0,meteohub,2013-07-12 05:37:00,
2013-07-12 00:42:00,71.6,63.7,29.88,WNW,286,0.0,4.0,76,0.00,,,0.00,0.0,meteohub,2013-07-12 05:42:00,
2013-07-12 00:47:00,71.4,63.5,29.88,NNE,28,0.0,4.0,76,0.00,,,0.00,0.0,meteohub,2013-07-12 05:47:00,
2013-07-12 00:52:00,71.4,63.9,29.88,NE,55,0.0,4.0,77,0.00,,,0.00,0.0,meteohub,2013-07-12 05:52:00,
2013-07-12 00:57:00,71.4,63.9,29.89,WNW,300,0.0,4.0,77,0.00,,,0.00,0.0,meteohub,2013-07-12 05:57:00,
2013-07-12 01:02:00,71.4,63.5,29.89,NNW,345,0.0,4.0,76,0.00,,,0.00,0.0,meteohub,2013-07-12 06:02:00,
2013-07-12 01:07:00,71.4,63.9,29.89,NNW,348,0.0,3.0,77,0.00,,,0.00,0.0,meteohub,2013-07-12 06:07:00,
2013-07-12 01:12:00,71.4,63.9,29.89,WNW,286,0.0,3.0,77,0.00,,,0.00,0.0,meteohub,2013-07-12 06:12:00,
2013-07-12 01:17:00,71.2,63.7,29.89,West,273,0.0,3.0,77,0.00,,,0.00,0.0,meteohub,2013-07-12 06:17:00,
2013-07-12 01:22:00,71.2,63.7,29.88,NW,313,0.0,2.0,77,0.00,,,0.00,0.0,meteohub,2013-07-12 06:22:00,
2013-07-12 01:27:00,71.2,63.7,29.88,WNW,298,0.0,3.0,77,0.00,,,0.00,0.0,meteohub,2013-07-12 06:27:00,
2013-07-12 01:32:00,71.2,63.7,29.88,East,85,0.0,3.0,77,0.00,,,0.00,0.0,meteohub,2013-07-12 06:32:00,
2013-07-12 01:37:00,71.2,63.7,29.88,NW,323,1.0,3.0,77,0.00,,,0.00,0.0,meteohub,2013-07-12 06:37:00,
2013-07-12 01:42:00,71.2,63.3,29.88,NE,55,0.0,3.0,76,0.00,,,0.00,0.0,meteohub,2013-07-12 06:42:00,
2013-07-12 01:47:00,71.2,63.7,29.88,NW,307,2.0,3.0,77,0.00,,,0.00,0.0,meteohub,2013-07-12 06:47:00,
2013-07-12 01:52:00,71.1,63.1,29.88,North,5,0.0,3.0,76,0.00,,,0.00,0.0,meteohub,2013-07-12 06:52:00,
2013-07-12 01:57:00,71.1,63.9,29.88,NW,317,0.0,3.0,78,0.00,,,0.00,0.0,meteohub,2013-07-12 06:57:00,
2013-07-12 02:02:00,70.9,63.3,29.88,NE,55,0.0,3.0,77,0.00,,,0.00,0.0,meteohub,2013-07-12 07:02:00,
2013-07-12 02:07:00,70.9,63.3,29.88,NE,50,0.0,2.0,77,0.00,,,0.00,0.0,meteohub,2013-07-12 07:07:00,
2013-07-12 02:12:00,70.9,63.3,29.88,North,11,0.0,3.0,77,0.00,,,0.00,0.0,meteohub,2013-07-12 07:12:00,
2013-07-12 02:17:00,70.9,63.0,29.88,NW,306,1.0,4.0,76,0.00,,,0.00,0.0,meteohub,2013-07-12 07:17:00,
2013-07-12 02:22:00,70.9,63.3,29.88,WSW,257,0.0,4.0,77,0.00,,,0.00,0.0,meteohub,2013-07-12 07:22:00,
2013-07-12 02:27:00,70.5,63.0,29.88,WSW,257,0.0,4.0,77,0.00,,,0.00,0.0,meteohub,2013-07-12 07:27:00,
2013-07-12 02:32:00,70.3,62.8,29.88,NNW,339,0.0,4.0,77,0.00,,,0.00,0.0,meteohub,2013-07-12 07:32:00,
2013-07-12 02:37:00,70.3,62.8,29.88,NE,34,0.0,4.0,77,0.00,,,0.00,0.0,meteohub,2013-07-12 07:37:00,
2013-07-12 02:42:00,70.2,63.0,29.88,NW,323,2.0,2.0,78,0.00,,,0.00,0.0,meteohub,2013-07-12 07:42:00,
2013-07-12 02:47:00,70.3,62.8,29.88,NNW,346,1.0,3.0,77,0.00,,,0.00,0.0,meteohub,2013-07-12 07:47:00,
2013-07-12 02:52:00,70.2,62.6,29.87,NW,316,3.0,3.0,77,0.00,,,0.00,0.0,meteohub,2013-07-12 07:52:00,
2013-07-12 02:57:00,70.2,62.2,29.88,NW,309,1.0,3.0,76,0.00,,,0.00,0.0,meteohub,2013-07-12 07:57:00,
2013-07-12 03:02:00,70.3,62.4,29.87,WNW,289,0.0,6.0,76,0.00,,,0.00,0.0,meteohub,2013-07-12 08:02:00,
2013-07-12 03:07:00,70.3,62.4,29.87,West,277,0.0,6.0,76,0.00,,,0.00,0.0,meteohub,2013-07-12 08:07:00,
2013-07-12 03:12:00,70.2,62.2,29.87,NW,317,2.0,6.0,76,0.00,,,0.00,0.0,meteohub,2013-07-12 08:12:00,
2013-07-12 03:17:00,70.2,62.6,29.87,WNW,292,1.0,5.0,77,0.00,,,0.00,0.0,meteohub,2013-07-12 08:17:00,
2013-07-12 03:22:00,70.0,62.1,29.87,West,271,0.0,5.0,76,0.00,,,0.00,0.0,meteohub,2013-07-12 08:22:00,
2013-07-12 03:27:00,70.2,62.6,29.86,East,90,0.0,5.0,77,0.00,,,0.00,0.0,meteohub,2013-07-12 08:27:00,
2013-07-12 03:32:00,70.0,62.8,29.86,North,5,0.0,2.0,78,0.00,,,0.00,0.0,meteohub,2013-07-12 08:32:00,
2013-07-12 03:37:00,70.0,62.4,29.86,NNW,341,0.0,5.0,77,0.00,,,0.00,0.0,meteohub,2013-07-12 08:37:00,
2013-07-12 03:42:00,69.6,62.1,29.86,WSW,250,2.0,5.0,77,0.00,,,0.00,0.0,meteohub,2013-07-12 08:42:00,
2013-07-12 03:47:00,69.6,62.1,29.87,WNW,299,0.0,4.0,77,0.00,,,0.00,0.0,meteohub,2013-07-12 08:47:00,
2013-07-12 03:52:00,69.8,61.9,29.86,NNE,24,0.0,4.0,76,0.00,,,0.00,0.0,meteohub,2013-07-12 08:52:00,
2013-07-12 03:57:00,70.0,62.1,29.86,NNE,24,0.0,4.0,76,0.00,,,0.00,0.0,meteohub,2013-07-12 08:57:00,
2013-07-12 04:02:00,70.0,62.1,29.86,NNW,339,0.0,4.0,76,0.00,,,0.00,0.0,meteohub,2013-07-12 09:02:00,
2013-07-12 04:07:00,70.0,62.1,29.86,WNW,300,0.0,4.0,76,0.00,,,0.00,0.0,meteohub,2013-07-12 09:07:00,
2013-07-12 04:12:00,70.2,62.2,29.86,NW,322,0.0,3.0,76,0.00,,,0.00,0.0,meteohub,2013-07-12 09:12:00,
2013-07-12 04:17:00,70.2,62.2,29.87,WNW,284,0.0,3.0,76,0.00,,,0.00,0.0,meteohub,2013-07-12 09:17:00,
2013-07-12 04:22:00,70.2,62.2,29.87,North,0,0.0,4.0,76,0.00,,,0.00,0.0,meteohub,2013-07-12 09:22:00,
2013-07-12 04:27:00,70.0,62.4,29.87,NW,321,0.0,4.0,77,0.00,,,0.00,0.0,meteohub,2013-07-12 09:27:00,
2013-07-12 04:31:00,69.6,62.1,29.87,WNW,291,0.0,4.0,77,0.00,,,0.00,0.0,meteohub,2013-07-12 09:31:00,
2013-07-12 04:36:00,69.6,62.1,29.87,NNE,17,1.0,5.0,77,0.00,,,0.00,0.0,meteohub,2013-07-12 09:36:00,
2013-07-12 04:41:00,69.4,61.9,29.87,NNE,19,3.0,5.0,77,0.00,,,0.00,0.0,meteohub,2013-07-12 09:41:00,
2013-07-12 04:46:00,69.6,62.1,29.87,ESE,117,0.0,5.0,77,0.00,,,0.00,0.0,meteohub,2013-07-12 09:46:00,
2013-07-12 04:51:00,69.6,61.7,29.87,North,11,0.0,4.0,76,0.00,,,0.00,0.0,meteohub,2013-07-12 09:51:00,
2013-07-12 04:56:00,69.6,61.7,29.87,NNW,347,0.0,4.0,76,0.00,,,0.00,0.0,meteohub,2013-07-12 09:56:00,
2013-07-12 05:01:00,69.4,62.2,29.87,NNW,342,0.0,4.0,78,0.00,,,0.00,0.0,meteohub,2013-07-12 10:01:00,
2013-07-12 05:06:00,69.3,62.1,29.87,NW,322,0.0,3.0,78,0.00,,,0.00,0.0,meteohub,2013-07-12 10:06:00,
2013-07-12 05:12:00,69.1,61.9,29.87,NNW,337,1.0,2.0,78,0.00,,,0.00,0.0,meteohub,2013-07-12 10:12:00,
2013-07-12 05:17:00,69.1,61.5,29.87,NNW,338,0.0,1.0,77,0.00,,,0.00,0.0,meteohub,2013-07-12 10:17:00,
2013-07-12 05:22:00,69.1,61.9,29.87,West,266,1.0,3.0,78,0.00,,,0.00,0.0,meteohub,2013-07-12 10:22:00,
2013-07-12 05:27:00,69.1,62.2,29.87,NW,325,0.0,3.0,79,0.00,,,0.00,0.0,meteohub,2013-07-12 10:27:00,
2013-07-12 05:32:00,68.9,61.7,29.87,NNW,348,2.0,5.0,78,0.00,,,0.00,0.0,meteohub,2013-07-12 10:32:00,
2013-07-12 05:37:00,69.1,61.5,29.87,North,10,0.0,5.0,77,0.00,,,0.00,0.0,meteohub,2013-07-12 10:37:00,
2013-07-12 05:42:00,68.9,62.1,29.87,ENE,62,1.0,4.0,79,0.00,,,0.00,0.0,meteohub,2013-07-12 10:42:00,
2013-07-12 05:47:00,68.7,61.9,29.87,NE,34,0.0,4.0,79,0.00,,,0.00,0.0,meteohub,2013-07-12 10:47:00,
2013-07-12 05:52:00,68.7,61.5,29.87,NNE,14,0.0,3.0,78,0.00,,,0.00,0.0,meteohub,2013-07-12 10:52:00,
2013-07-12 05:57:00,68.9,61.7,29.87,ESE,118,0.0,3.0,78,0.00,,,0.00,5.0,meteohub,2013-07-12 10:57:00,
2013-07-12 06:02:00,69.1,61.5,29.87,NNW,341,3.0,6.0,77,0.00,,,0.00,5.0,meteohub,2013-07-12 11:02:00,
2013-07-12 06:07:00,69.1,61.5,29.87,NNW,331,0.0,6.0,77,0.00,,,0.00,7.0,meteohub,2013-07-12 11:07:00,
2013-07-12 06:12:00,68.7,61.9,29.87,WNW,298,0.0,5.0,79,0.00,,,0.00,9.0,meteohub,2013-07-12 11:12:00,
2013-07-12 06:17:00,68.5,61.3,29.87,West,271,0.0,5.0,78,0.00,,,0.00,11.0,meteohub,2013-07-12 11:17:00,
2013-07-12 06:22:00,68.7,61.5,29.87,NNW,339,1.0,6.0,78,0.00,,,0.00,12.0,meteohub,2013-07-12 11:22:00,
2013-07-12 06:27:00,68.7,62.2,29.87,North,355,0.0,6.0,80,0.00,,,0.00,14.0,meteohub,2013-07-12 11:27:00,
2013-07-12 06:32:00,68.5,61.3,29.87,ENE,69,0.0,6.0,78,0.00,,,0.00,16.0,meteohub,2013-07-12 11:32:00,
2013-07-12 06:37:00,68.5,61.3,29.86,NE,56,0.0,4.0,78,0.00,,,0.00,19.0,meteohub,2013-07-12 11:37:00,
2013-07-12 06:42:00,68.5,62.1,29.86,NNW,346,0.0,4.0,80,0.00,,,0.00,21.0,meteohub,2013-07-12 11:42:00,
2013-07-12 06:47:00,68.4,61.9,29.86,NNW,339,0.0,5.0,80,0.00,,,0.00,23.0,meteohub,2013-07-12 11:47:00,
2013-07-12 06:52:00,68.4,62.2,29.86,NW,306,0.0,5.0,81,0.00,,,0.00,25.0,meteohub,2013-07-12 11:52:00,
2013-07-12 06:57:00,68.4,62.2,29.86,North,9,3.0,5.0,81,0.00,,,0.00,26.0,meteohub,2013-07-12 11:57:00,
2013-07-12 07:02:00,68.4,61.5,29.86,North,11,4.0,5.0,79,0.00,,,0.00,28.0,meteohub,2013-07-12 12:02:00,
2013-07-12 07:07:00,68.5,62.1,29.86,WNW,296,1.0,5.0,80,0.00,,,0.00,30.0,meteohub,2013-07-12 12:07:00,
2013-07-12 07:12:00,68.5,62.4,29.86,NNW,338,0.0,6.0,81,0.00,,,0.00,32.0,meteohub,2013-07-12 12:12:00,
2013-07-12 07:17:00,68.5,62.4,29.86,NNE,31,0.0,6.0,81,0.00,,,0.00,35.0,meteohub,2013-07-12 12:17:00,
2013-07-12 07:22:00,68.5,62.4,29.86,NW,313,2.0,6.0,81,0.00,,,0.00,42.0,meteohub,2013-07-12 12:22:00,
2013-07-12 07:27:00,68.5,62.4,29.86,WNW,284,0.0,6.0,81,0.00,,,0.00,37.0,meteohub,2013-07-12 12:27:00,
2013-07-12 07:32:00,68.7,62.6,29.86,North,5,1.0,5.0,81,0.00,,,0.00,42.0,meteohub,2013-07-12 12:32:00,
2013-07-12 07:37:00,69.1,62.6,29.86,NNE,25,0.0,5.0,80,0.00,,,0.00,44.0,meteohub,2013-07-12 12:37:00,
2013-07-12 07:42:00,69.3,63.1,29.86,WNW,297,0.0,5.0,81,0.00,,,0.00,53.0,meteohub,2013-07-12 12:42:00,
2013-07-12 07:47:00,69.3,62.8,29.86,WNW,285,0.0,7.0,80,0.00,,,0.00,47.0,meteohub,2013-07-12 12:47:00,
2013-07-12 07:52:00,69.6,63.1,29.86,North,5,1.0,7.0,80,0.00,,,0.00,51.0,meteohub,2013-07-12 12:52:00,
2013-07-12 07:57:00,69.8,63.3,29.86,North,355,0.0,7.0,80,0.00,,,0.00,53.0,meteohub,2013-07-12 12:57:00,
2013-07-12 08:02:00,70.0,63.1,29.86,NNE,30,2.0,6.0,79,0.00,,,0.00,58.0,meteohub,2013-07-12 13:02:00,
2013-07-12 08:07:00,70.2,63.3,29.86,NW,324,0.0,4.0,79,0.00,,,0.00,250.0,meteohub,2013-07-12 13:07:00,
2013-07-12 08:12:00,70.3,63.9,29.86,NNE,30,0.0,4.0,80,0.00,,,0.00,264.0,meteohub,2013-07-12 13:12:00,
2013-07-12 08:17:00,70.9,64.4,29.86,North,355,2.0,7.0,80,0.00,,,0.00,279.0,meteohub,2013-07-12 13:17:00,
2013-07-12 08:22:00,71.8,63.9,29.86,East,92,0.0,7.0,76,0.00,,,0.00,295.0,meteohub,2013-07-12 13:22:00,
2013-07-12 08:27:00,72.0,64.8,29.86,North,5,2.0,5.0,78,0.00,,,0.00,311.0,meteohub,2013-07-12 13:27:00,
2013-07-12 08:32:00,72.3,64.4,29.86,NNW,347,0.0,5.0,76,0.00,,,0.00,325.0,meteohub,2013-07-12 13:32:00,
2013-07-12 08:37:00,72.1,64.9,29.86,WNW,282,0.0,5.0,78,0.00,,,0.00,334.0,meteohub,2013-07-12 13:37:00,
2013-07-12 08:42:00,72.3,65.5,29.86,NW,306,0.0,5.0,79,0.00,,,0.00,352.0,meteohub,2013-07-12 13:42:00,
2013-07-12 08:47:00,73.0,65.5,29.86,WNW,284,0.0,5.0,77,0.00,,,0.00,371.0,meteohub,2013-07-12 13:47:00,
2013-07-12 08:52:00,73.2,65.7,29.85,ENE,78,0.0,5.0,77,0.00,,,0.00,383.0,meteohub,2013-07-12 13:52:00,
2013-07-12 08:58:00,73.9,66.2,29.86,South,178,0.0,5.0,77,0.00,,,0.00,396.0,meteohub,2013-07-12 13:58:00,
2013-07-12 09:03:00,74.1,65.7,29.85,WNW,294,2.0,5.0,75,0.00,,,0.00,408.0,meteohub,2013-07-12 14:03:00,
2013-07-12 09:08:00,74.7,65.5,29.85,ENE,60,0.0,5.0,73,0.00,,,0.00,424.0,meteohub,2013-07-12 14:08:00,
2013-07-12 09:13:00,75.2,66.0,29.85,NNE,23,0.0,5.0,73,0.00,,,0.00,436.0,meteohub,2013-07-12 14:13:00,
2013-07-12 09:18:00,75.7,67.3,29.85,NW,322,1.0,5.0,75,0.00,,,0.00,448.0,meteohub,2013-07-12 14:18:00,
2013-07-12 09:23:00,75.7,66.0,29.85,WSW,251,2.0,5.0,72,0.00,,,0.00,457.0,meteohub,2013-07-12 14:23:00,
2013-07-12 09:28:00,75.7,66.4,29.85,NW,318,2.0,3.0,73,0.00,,,0.00,475.0,meteohub,2013-07-12 14:28:00,
2013-07-12 09:33:00,76.5,67.6,29.85,SW,230,0.0,4.0,74,0.00,,,0.00,492.0,meteohub,2013-07-12 14:33:00,
2013-07-12 09:38:00,76.6,66.6,29.85,NW,306,0.0,9.0,71,0.00,,,0.00,506.0,meteohub,2013-07-12 14:38:00,
2013-07-12 09:43:00,77.2,67.5,29.84,SE,140,1.0,9.0,72,0.00,,,0.00,520.0,meteohub,2013-07-12 14:43:00,
2013-07-12 09:48:00,77.4,66.7,29.84,West,265,2.0,9.0,70,0.00,,,0.00,533.0,meteohub,2013-07-12 14:48:00,
2013-07-12 09:53:00,77.7,67.1,29.84,WSW,248,0.0,4.0,70,0.00,,,0.00,545.0,meteohub,2013-07-12 14:53:00,
2013-07-12 09:58:00,77.5,66.6,29.84,WNW,292,1.0,8.0,69,0.00,,,0.00,554.0,meteohub,2013-07-12 14:58:00,
2013-07-12 10:03:00,77.9,67.3,29.84,WNW,284,0.0,8.0,70,0.00,,,0.00,568.0,meteohub,2013-07-12 15:03:00,
2013-07-12 10:08:00,78.1,66.7,29.84,NE,40,0.0,6.0,68,0.00,,,0.00,580.0,meteohub,2013-07-12 15:08:00,
2013-07-12 10:13:00,78.8,67.8,29.84,SSW,201,0.0,4.0,69,0.00,,,0.00,591.0,meteohub,2013-07-12 15:13:00,
2013-07-12 10:18:00,79.0,68.0,29.84,NNW,329,1.0,6.0,69,0.00,,,0.00,603.0,meteohub,2013-07-12 15:18:00,
2013-07-12 10:23:00,79.2,68.2,29.83,NW,311,1.0,6.0,69,0.00,,,0.00,615.0,meteohub,2013-07-12 15:23:00,
2013-07-12 10:28:00,79.3,66.9,29.83,NNE,24,1.0,6.0,66,0.00,,,0.00,629.0,meteohub,2013-07-12 15:28:00,
2013-07-12 10:33:00,79.5,67.6,29.83,NW,317,1.0,3.0,67,0.00,,,0.00,640.0,meteohub,2013-07-12 15:33:00,
2013-07-12 10:38:00,79.9,68.4,29.83,SE,130,2.0,6.0,68,0.00,,,0.00,652.0,meteohub,2013-07-12 15:38:00,
2013-07-12 10:43:00,80.2,67.8,29.83,NNW,340,0.0,6.0,66,0.00,,,0.00,663.0,meteohub,2013-07-12 15:43:00,
2013-07-12 10:48:00,80.8,67.5,29.83,WNW,298,1.0,6.0,64,0.00,,,0.00,671.0,meteohub,2013-07-12 15:48:00,
2013-07-12 10:53:00,80.8,69.3,29.83,WNW,295,2.0,5.0,68,0.00,,,0.00,682.0,meteohub,2013-07-12 15:53:00,
2013-07-12 10:58:00,81.1,70.3,29.83,NW,314,1.0,5.0,70,0.00,,,0.00,691.0,meteohub,2013-07-12 15:58:00,
2013-07-12 11:03:00,81.5,68.5,29.83,SW,224,1.0,6.0,65,0.00,,,0.00,700.0,meteohub,2013-07-12 16:03:00,
2013-07-12 11:08:00,81.9,69.8,29.83,WNW,296,2.0,6.0,67,0.00,,,0.00,708.0,meteohub,2013-07-12 16:08:00,
2013-07-12 11:13:00,82.0,69.6,29.83,WNW,292,1.0,4.0,66,0.00,,,0.00,717.0,meteohub,2013-07-12 16:13:00,
2013-07-12 11:18:00,82.0,69.6,29.83,NNW,329,0.0,7.0,66,0.00,,,0.00,726.0,meteohub,2013-07-12 16:18:00,
2013-07-12 11:23:00,82.2,69.3,29.83,West,266,2.0,7.0,65,0.00,,,0.00,737.0,meteohub,2013-07-12 16:23:00,
2013-07-12 11:28:00,82.4,70.0,29.83,East,99,1.0,7.0,66,0.00,,,0.00,745.0,meteohub,2013-07-12 16:28:00,
2013-07-12 11:33:00,82.9,71.8,29.83,West,261,0.0,4.0,69,0.00,,,0.00,754.0,meteohub,2013-07-12 16:33:00,
2013-07-12 11:38:00,82.9,70.9,29.83,WNW,301,2.0,8.0,67,0.00,,,0.00,763.0,meteohub,2013-07-12 16:38:00,
2013-07-12 11:43:00,83.5,71.4,29.82,WNW,282,0.0,8.0,67,0.00,,,0.00,766.0,meteohub,2013-07-12 16:43:00,
2013-07-12 11:48:00,83.5,71.4,29.82,SSW,205,0.0,8.0,67,0.00,,,0.00,777.0,meteohub,2013-07-12 16:48:00,
2013-07-12 11:53:00,83.7,71.1,29.82,West,267,0.0,8.0,66,0.00,,,0.00,788.0,meteohub,2013-07-12 16:53:00,
2013-07-12 11:58:00,83.8,70.9,29.81,NNW,327,1.0,4.0,65,0.00,,,0.00,795.0,meteohub,2013-07-12 16:58:00,
2013-07-12 12:04:00,84.2,72.0,29.81,South,187,0.0,4.0,67,0.00,,,0.00,803.0,meteohub,2013-07-12 17:04:00,
2013-07-12 12:09:00,84.2,72.0,29.81,West,277,2.0,3.0,67,0.00,,,0.00,812.0,meteohub,2013-07-12 17:09:00,
2013-07-12 12:14:00,84.4,71.2,29.81,SSW,212,2.0,6.0,65,0.00,,,0.00,821.0,meteohub,2013-07-12 17:14:00,
2013-07-12 12:19:00,84.4,73.6,29.81,West,271,0.0,6.0,70,0.00,,,0.00,824.0,meteohub,2013-07-12 17:19:00,
2013-07-12 12:24:00,84.6,71.1,29.81,WNW,286,1.0,6.0,64,0.00,,,0.00,830.0,meteohub,2013-07-12 17:24:00,
2013-07-12 12:29:00,84.9,71.4,29.81,NW,320,0.0,6.0,64,0.00,,,0.00,830.0,meteohub,2013-07-12 17:29:00,
2013-07-12 12:35:00,85.5,71.4,29.81,NNW,329,0.0,6.0,63,0.00,,,0.00,833.0,meteohub,2013-07-12 17:35:00,
2013-07-12 12:40:00,85.5,71.4,29.81,SW,214,2.0,6.0,63,0.00,,,0.00,833.0,meteohub,2013-07-12 17:40:00,
2013-07-12 12:45:00,85.5,72.9,29.80,West,281,3.0,6.0,66,0.00,,,0.00,842.0,meteohub,2013-07-12 17:45:00,
2013-07-12 12:50:00,85.5,71.4,29.80,West,281,1.0,8.0,63,0.00,,,0.00,844.0,meteohub,2013-07-12 17:50:00,
2013-07-12 12:55:00,85.8,71.8,29.80,NNE,30,0.0,8.0,63,0.00,,,0.00,849.0,meteohub,2013-07-12 17:55:00,
2013-07-12 13:00:00,86.2,72.5,29.80,NNE,30,4.0,7.0,64,0.00,,,0.00,847.0,meteohub,2013-07-12 18:00:00,
2013-07-12 13:05:00,85.8,72.1,29.80,West,279,4.0,8.0,64,0.00,,,0.00,846.0,meteohub,2013-07-12 18:05:00,
2013-07-12 13:10:00,85.6,73.0,29.80,NNW,336,1.0,8.0,66,0.00,,,0.00,856.0,meteohub,2013-07-12 18:10:00,
2013-07-12 13:16:00,86.4,75.4,29.80,WSW,250,2.0,8.0,70,0.00,,,0.00,865.0,meteohub,2013-07-12 18:16:00,
2013-07-12 13:21:00,86.4,72.3,29.80,West,280,1.0,10.0,63,0.00,,,0.00,874.0,meteohub,2013-07-12 18:21:00,
2013-07-12 13:26:00,86.2,71.6,29.80,WNW,302,4.0,10.0,62,0.00,,,0.00,707.0,meteohub,2013-07-12 18:26:00,
2013-07-12 13:31:00,86.2,73.0,29.79,NW,319,1.0,10.0,65,0.00,,,0.00,863.0,meteohub,2013-07-12 18:31:00,
2013-07-12 13:36:00,86.5,72.5,29.79,SSW,213,1.0,7.0,63,0.00,,,0.00,863.0,meteohub,2013-07-12 18:36:00,
2013-07-12 13:42:00,86.7,73.0,29.79,North,0,3.0,7.0,64,0.00,,,0.00,861.0,meteohub,2013-07-12 18:42:00,
2013-07-12 13:47:00,87.1,72.0,29.79,West,280,1.0,7.0,61,0.00,,,0.00,860.0,meteohub,2013-07-12 18:47:00,
2013-07-12 13:52:00,87.3,74.1,29.79,NW,306,5.0,7.0,65,0.00,,,0.00,860.0,meteohub,2013-07-12 18:52:00,
2013-07-12 13:57:00,87.4,73.8,29.79,North,0,1.0,7.0,64,0.00,,,0.00,861.0,meteohub,2013-07-12 18:57:00,
2013-07-12 14:02:00,87.8,75.0,29.79,East,87,1.0,7.0,66,0.00,,,0.00,853.0,meteohub,2013-07-12 19:02:00,
2013-07-12 14:07:00,87.4,72.9,29.79,West,278,3.0,6.0,62,0.00,,,0.00,856.0,meteohub,2013-07-12 19:07:00,
2013-07-12 14:13:00,87.4,73.8,29.78,West,263,2.0,6.0,64,0.00,,,0.00,831.0,meteohub,2013-07-12 19:13:00,
2013-07-12 14:18:00,87.4,73.8,29.79,North,5,0.0,5.0,64,0.00,,,0.00,838.0,meteohub,2013-07-12 19:18:00,
2013-07-12 14:23:00,87.8,74.1,29.78,NNW,338,0.0,7.0,64,0.00,,,0.00,847.0,meteohub,2013-07-12 19:23:00,
2013-07-12 14:28:00,88.0,74.7,29.78,NW,311,0.0,7.0,65,0.00,,,0.00,846.0,meteohub,2013-07-12 19:28:00,
2013-07-12 14:33:00,87.8,74.1,29.78,NNE,22,2.0,8.0,64,0.00,,,0.00,835.0,meteohub,2013-07-12 19:33:00,
2013-07-12 14:39:00,88.0,72.3,29.78,ESE,117,1.0,9.0,60,0.00,,,0.00,485.0,meteohub,2013-07-12 19:39:00,
2013-07-12 14:44:00,87.3,74.5,29.78,WSW,258,1.0,9.0,66,0.00,,,0.00,548.0,meteohub,2013-07-12 19:44:00,
2013-07-12 14:50:00,87.3,74.1,29.78,West,261,0.0,7.0,65,0.00,,,0.00,831.0,meteohub,2013-07-12 19:50:00,
2013-07-12 14:55:00,88.2,74.5,29.78,WNW,289,2.0,8.0,64,0.00,,,0.00,870.0,meteohub,2013-07-12 19:55:00,
2013-07-12 15:00:00,88.5,74.8,29.78,WNW,287,4.0,14.0,64,0.00,,,0.00,782.0,meteohub,2013-07-12 20:00:00,
2013-07-12 15:05:00,88.2,73.9,29.78,WSW,244,3.0,14.0,63,0.00,,,0.00,851.0,meteohub,2013-07-12 20:05:00,
2013-07-12 15:11:00,88.3,73.6,29.78,WNW,294,2.0,14.0,62,0.00,,,0.00,814.0,meteohub,2013-07-12 20:11:00,
2013-07-12 15:16:00,88.2,74.8,29.78,SW,221,2.0,10.0,65,0.00,,,0.00,795.0,meteohub,2013-07-12 20:16:00,
2013-07-12 15:21:00,88.7,74.5,29.78,ESE,115,1.0,7.0,63,0.00,,,0.00,791.0,meteohub,2013-07-12 20:21:00,
2013-07-12 15:26:00,89.1,74.3,29.77,WNW,290,3.0,6.0,62,0.00,,,0.00,789.0,meteohub,2013-07-12 20:26:00,
2013-07-12 15:31:00,88.9,73.8,29.77,North,349,0.0,10.0,61,0.00,,,0.00,661.0,meteohub,2013-07-12 20:31:00,
2013-07-12 15:36:00,88.9,74.7,29.77,West,271,4.0,10.0,63,0.00,,,0.00,780.0,meteohub,2013-07-12 20:36:00,
2013-07-12 15:41:00,88.7,75.0,29.76,NNW,340,1.0,7.0,64,0.00,,,0.00,700.0,meteohub,2013-07-12 20:41:00,
2013-07-12 15:46:00,89.1,74.8,29.76,NNW,346,1.0,7.0,63,0.00,,,0.00,780.0,meteohub,2013-07-12 20:46:00,
2013-07-12 15:51:00,88.9,74.7,29.76,NNW,346,4.0,7.0,63,0.00,,,0.00,311.0,meteohub,2013-07-12 20:51:00,
2013-07-12 15:56:00,88.2,73.9,29.76,NW,317,1.0,7.0,63,0.00,,,0.00,403.0,meteohub,2013-07-12 20:56:00,
2013-07-12 16:01:00,88.3,73.6,29.76,West,273,1.0,8.0,62,0.00,,,0.00,679.0,meteohub,2013-07-12 21:01:00,
2013-07-12 16:07:00,88.2,73.4,29.76,WNW,285,0.0,8.0,62,0.00,,,0.00,575.0,meteohub,2013-07-12 21:07:00,
2013-07-12 16:12:00,87.8,75.0,29.76,NW,325,0.0,9.0,66,0.00,,,0.00,571.0,meteohub,2013-07-12 21:12:00,
2013-07-12 16:17:00,87.8,74.1,29.76,NNE,12,1.0,9.0,64,0.00,,,0.00,548.0,meteohub,2013-07-12 21:17:00,
2013-07-12 16:22:00,87.4,73.2,29.76,South,180,3.0,9.0,63,0.00,,,0.00,410.0,meteohub,2013-07-12 21:22:00,
2013-07-12 16:28:00,87.4,73.2,29.76,WSW,247,3.0,8.0,63,0.00,,,0.00,476.0,meteohub,2013-07-12 21:28:00,
2013-07-12 16:33:00,87.4,75.2,29.75,WNW,292,6.0,9.0,67,0.00,,,0.00,570.0,meteohub,2013-07-12 21:33:00,
2013-07-12 16:38:00,88.0,72.9,29.76,West,279,3.0,9.0,61,0.00,,,0.00,557.0,meteohub,2013-07-12 21:38:00,
2013-07-12 16:43:00,88.2,74.8,29.76,NW,309,2.0,9.0,65,0.00,,,0.00,613.0,meteohub,2013-07-12 21:43:00,
2013-07-12 16:48:00,88.2,73.0,29.75,West,261,1.0,8.0,61,0.00,,,0.00,606.0,meteohub,2013-07-12 21:48:00,
2013-07-12 16:53:00,88.0,73.8,29.76,South,178,2.0,10.0,63,0.00,,,0.00,438.0,meteohub,2013-07-12 21:53:00,
2013-07-12 16:58:00,88.0,72.9,29.76,West,267,2.0,10.0,61,0.00,,,0.00,302.0,meteohub,2013-07-12 21:58:00,
2013-07-12 17:03:00,88.0,73.4,29.76,WNW,286,2.0,10.0,62,0.00,,,0.00,464.0,meteohub,2013-07-12 22:03:00,
2013-07-12 17:08:00,88.0,73.4,29.76,NW,307,0.0,9.0,62,0.00,,,0.00,306.0,meteohub,2013-07-12 22:08:00,
2013-07-12 17:13:00,87.6,74.3,29.76,West,263,1.0,8.0,65,0.00,,,0.00,132.0,meteohub,2013-07-12 22:13:00,
2013-07-12 17:18:00,87.8,73.6,29.76,WSW,238,2.0,7.0,63,0.00,,,0.00,318.0,meteohub,2013-07-12 22:18:00,
2013-07-12 17:23:00,88.0,72.3,29.76,WSW,238,2.0,7.0,60,0.00,,,0.00,494.0,meteohub,2013-07-12 22:23:00,
2013-07-12 17:29:00,87.8,73.2,29.76,South,183,2.0,8.0,62,0.00,,,0.00,167.0,meteohub,2013-07-12 22:29:00,
2013-07-12 17:34:00,87.8,73.6,29.76,WSW,257,0.0,8.0,63,0.00,,,0.00,243.0,meteohub,2013-07-12 22:34:00,
2013-07-12 17:39:00,87.4,73.8,29.75,WNW,286,2.0,8.0,64,0.00,,,0.00,102.0,meteohub,2013-07-12 22:39:00,
2013-07-12 17:44:00,87.4,73.8,29.75,NW,324,0.0,9.0,64,0.00,,,0.00,105.0,meteohub,2013-07-12 22:44:00,
2013-07-12 17:49:00,87.4,72.9,29.75,WNW,294,3.0,9.0,62,0.00,,,0.00,90.0,meteohub,2013-07-12 22:49:00,
2013-07-12 17:54:00,87.4,73.8,29.75,WNW,284,0.0,9.0,64,0.00,,,0.00,97.0,meteohub,2013-07-12 22:54:00,
2013-07-12 17:59:00,87.1,73.4,29.75,WNW,284,3.0,5.0,64,0.00,,,0.00,77.0,meteohub,2013-07-12 22:59:00,
2013-07-12 18:04:00,86.7,73.0,29.75,West,278,2.0,5.0,64,0.00,,,0.00,74.0,meteohub,2013-07-12 23:04:00,
2013-07-12 18:09:00,86.5,73.4,29.75,North,0,0.0,5.0,65,0.00,,,0.00,93.0,meteohub,2013-07-12 23:09:00,
2013-07-12 18:14:00,86.7,72.7,29.75,SE,144,2.0,7.0,63,0.00,,,0.00,95.0,meteohub,2013-07-12 23:14:00,
2013-07-12 18:19:00,87.1,73.4,29.75,NNW,340,0.0,7.0,64,0.00,,,0.00,118.0,meteohub,2013-07-12 23:19:00,
2013-07-12 18:25:00,86.7,73.6,29.75,NNE,19,3.0,8.0,65,0.00,,,0.00,90.0,meteohub,2013-07-12 23:25:00,
2013-07-12 18:30:00,86.7,73.6,29.75,SE,128,3.0,9.0,65,0.00,,,0.00,86.0,meteohub,2013-07-12 23:30:00,
2013-07-12 18:35:00,86.5,72.5,29.75,SE,130,0.0,9.0,63,0.00,,,0.00,130.0,meteohub,2013-07-12 23:35:00,
2013-07-12 18:40:00,86.5,73.8,29.75,SW,217,0.0,9.0,66,0.00,,,0.00,220.0,meteohub,2013-07-12 23:40:00,
2013-07-12 18:45:00,86.7,73.6,29.75,WNW,298,0.0,6.0,65,0.00,,,0.00,283.0,meteohub,2013-07-12 23:45:00,
2013-07-12 18:50:00,86.2,73.4,29.75,NE,43,3.0,7.0,66,0.00,,,0.00,190.0,meteohub,2013-07-12 23:50:00,
2013-07-12 18:55:00,86.0,72.3,29.75,SSW,209,0.0,10.0,64,0.00,,,0.00,95.0,meteohub,2013-07-12 23:55:00,
2013-07-12 19:00:00,85.8,73.2,29.75,WNW,292,0.0,10.0,66,0.00,,,0.00,54.0,meteohub,2013-07-13 00:00:00,
2013-07-12 19:06:00,85.8,72.7,29.75,NW,314,0.0,9.0,65,0.00,,,0.00,53.0,meteohub,2013-07-13 00:06:00,
2013-07-12 19:11:00,85.8,73.2,29.76,North,355,1.0,7.0,66,0.00,,,0.00,51.0,meteohub,2013-07-13 00:11:00,
2013-07-12 19:16:00,85.6,72.1,29.76,NNW,333,1.0,7.0,64,0.00,,,0.00,47.0,meteohub,2013-07-13 00:16:00,
2013-07-12 19:21:00,85.6,72.1,29.76,SW,224,2.0,5.0,64,0.00,,,0.00,46.0,meteohub,2013-07-13 00:21:00,
2013-07-12 19:27:00,85.5,72.0,29.75,SW,228,0.0,5.0,64,0.00,,,0.00,46.0,meteohub,2013-07-13 00:27:00,
2013-07-12 19:32:00,85.5,72.9,29.75,ESE,112,0.0,5.0,66,0.00,,,0.00,42.0,meteohub,2013-07-13 00:32:00,
2013-07-12 19:37:00,84.9,72.3,29.75,WNW,303,0.0,5.0,66,0.00,,,0.00,40.0,meteohub,2013-07-13 00:37:00,
2013-07-12 19:42:00,84.4,73.0,29.75,West,265,1.0,5.0,69,0.00,,,0.00,39.0,meteohub,2013-07-13 00:42:00,
2013-07-12 19:47:00,84.2,72.5,29.76,West,265,0.0,5.0,68,0.00,,,0.00,40.0,meteohub,2013-07-13 00:47:00,
2013-07-12 19:53:00,84.2,72.5,29.75,NW,304,1.0,4.0,68,0.00,,,0.00,33.0,meteohub,2013-07-13 00:53:00,
2013-07-12 19:58:00,83.7,71.6,29.75,SSW,203,0.0,4.0,67,0.00,,,0.00,32.0,meteohub,2013-07-13 00:58:00,
2013-07-12 20:03:00,83.8,72.1,29.75,WNW,296,0.0,6.0,68,0.00,,,0.00,30.0,meteohub,2013-07-13 01:03:00,
2013-07-12 20:08:00,83.7,72.3,29.76,NNW,343,0.0,7.0,69,0.00,,,0.00,26.0,meteohub,2013-07-13 01:08:00,
2013-07-12 20:13:00,83.5,71.8,29.76,North,5,1.0,7.0,68,0.00,,,0.00,25.0,meteohub,2013-07-13 01:13:00,
2013-07-12 20:19:00,82.9,72.1,29.75,WNW,290,1.0,7.0,70,0.00,,,0.00,23.0,meteohub,2013-07-13 01:19:00,
2013-07-12 20:24:00,83.3,71.2,29.75,WNW,286,0.0,4.0,67,0.00,,,0.00,14.0,meteohub,2013-07-13 01:24:00,
2013-07-12 20:29:00,83.1,72.0,29.76,NE,48,0.0,5.0,69,0.00,,,0.00,11.0,meteohub,2013-07-13 01:29:00,
2013-07-12 20:34:00,82.8,71.1,29.76,NNW,336,0.0,5.0,68,0.00,,,0.00,7.0,meteohub,2013-07-13 01:34:00,
2013-07-12 20:39:00,82.6,71.4,29.76,NW,304,0.0,5.0,69,0.00,,,0.00,5.0,meteohub,2013-07-13 01:39:00,
2013-07-12 20:44:00,82.0,71.2,29.76,NW,304,1.0,5.0,70,0.00,,,0.00,5.0,meteohub,2013-07-13 01:44:00,
2013-07-12 20:50:00,81.7,70.9,29.76,NW,304,0.0,5.0,70,0.00,,,0.00,0.0,meteohub,2013-07-13 01:50:00,
2013-07-12 20:55:00,81.3,70.2,29.76,NW,305,0.0,2.0,69,0.00,,,0.00,0.0,meteohub,2013-07-13 01:55:00,
2013-07-12 21:00:00,81.3,70.5,29.75,NE,42,2.0,4.0,70,0.00,,,0.00,0.0,meteohub,2013-07-13 02:00:00,
2013-07-12 21:06:00,81.3,70.5,29.76,NNE,12,0.0,4.0,70,0.00,,,0.00,0.0,meteohub,2013-07-13 02:06:00,
2013-07-12 21:12:00,81.1,70.9,29.76,SW,224,0.0,5.0,71,0.00,,,0.00,0.0,meteohub,2013-07-13 02:12:00,
2013-07-12 21:17:00,81.1,70.0,29.76,NW,309,0.0,5.0,69,0.00,,,0.00,0.0,meteohub,2013-07-13 02:17:00,
2013-07-12 21:22:00,81.0,70.2,29.76,NE,36,0.0,4.0,70,0.00,,,0.00,0.0,meteohub,2013-07-13 02:22:00,
2013-07-12 21:27:00,80.8,70.5,29.76,NNW,336,0.0,4.0,71,0.00,,,0.00,0.0,meteohub,2013-07-13 02:27:00,
2013-07-12 21:32:00,80.4,70.5,29.76,North,355,0.0,4.0,72,0.00,,,0.00,0.0,meteohub,2013-07-13 02:32:00,
2013-07-12 21:37:00,80.6,70.0,29.76,NNW,334,0.0,4.0,70,0.00,,,0.00,0.0,meteohub,2013-07-13 02:37:00,
2013-07-12 21:42:00,80.6,70.3,29.76,NE,56,3.0,3.0,71,0.00,,,0.00,0.0,meteohub,2013-07-13 02:42:00,
2013-07-12 21:48:00,80.8,70.2,29.76,NNW,344,2.0,7.0,70,0.00,,,0.00,0.0,meteohub,2013-07-13 02:48:00,
2013-07-12 21:53:00,80.8,70.2,29.76,SSW,205,5.0,7.0,70,0.00,,,0.00,0.0,meteohub,2013-07-13 02:53:00,
2013-07-12 21:58:00,81.0,69.8,29.76,SSE,154,0.0,7.0,69,0.00,,,0.00,0.0,meteohub,2013-07-13 02:58:00,
2013-07-12 22:03:00,81.0,69.8,29.76,East,91,0.0,5.0,69,0.00,,,0.00,0.0,meteohub,2013-07-13 03:03:00,
2013-07-12 22:09:00,80.6,70.0,29.77,North,355,0.0,5.0,70,0.00,,,0.00,0.0,meteohub,2013-07-13 03:09:00,
2013-07-12 22:14:00,80.6,70.0,29.78,NE,46,0.0,7.0,70,0.00,,,0.00,0.0,meteohub,2013-07-13 03:14:00,
2013-07-12 22:19:00,80.4,70.5,29.78,NW,307,0.0,7.0,72,0.00,,,0.00,0.0,meteohub,2013-07-13 03:19:00,
2013-07-12 22:24:00,80.2,70.0,29.78,ENE,78,2.0,6.0,71,0.00,,,0.00,0.0,meteohub,2013-07-13 03:24:00,
2013-07-12 22:30:00,80.4,69.8,29.79,WNW,284,0.0,6.0,70,0.00,,,0.00,0.0,meteohub,2013-07-13 03:30:00,
2013-07-12 22:35:00,80.2,70.0,29.79,West,260,0.0,4.0,71,0.00,,,0.00,0.0,meteohub,2013-07-13 03:35:00,
2013-07-12 22:40:00,79.9,69.6,29.80,NW,305,0.0,3.0,71,0.00,,,0.00,0.0,meteohub,2013-07-13 03:40:00,
2013-07-12 22:45:00,79.5,69.6,29.80,NW,312,0.0,2.0,72,0.00,,,0.00,0.0,meteohub,2013-07-13 03:45:00,
2013-07-12 22:50:00,79.3,69.4,29.79,NW,313,0.0,2.0,72,0.00,,,0.00,0.0,meteohub,2013-07-13 03:50:00,
2013-07-12 22:56:00,79.5,69.6,29.79,WNW,298,0.0,4.0,72,0.00,,,0.00,0.0,meteohub,2013-07-13 03:56:00,
2013-07-12 23:01:00,79.3,70.0,29.80,NW,317,2.0,4.0,73,0.00,,,0.00,0.0,meteohub,2013-07-13 04:01:00,
2013-07-12 23:02:00,79.3,69.4,29.80,North,5,0.0,4.0,72,0.00,,,0.00,0.0,meteohub,2013-07-13 04:02:00,
2013-07-12 23:07:00,79.3,69.4,29.80,North,9,0.0,4.0,72,0.00,,,0.00,0.0,meteohub,2013-07-13 04:07:00,
2013-07-12 23:12:00,79.2,70.2,29.80,NNW,348,0.0,3.0,74,0.00,,,0.00,0.0,meteohub,2013-07-13 04:12:00,
2013-07-12 23:17:00,79.3,70.0,29.80,North,355,0.0,3.0,73,0.00,,,0.00,0.0,meteohub,2013-07-13 04:17:00,
2013-07-12 23:22:00,79.3,70.0,29.80,WSW,237,0.0,3.0,73,0.00,,,0.00,0.0,meteohub,2013-07-13 04:22:00,
2013-07-12 23:27:00,79.2,70.2,29.80,North,355,0.0,5.0,74,0.00,,,0.00,0.0,meteohub,2013-07-13 04:27:00,
2013-07-12 23:32:00,79.0,70.0,29.81,West,269,0.0,5.0,74,0.00,,,0.00,0.0,meteohub,2013-07-13 04:32:00,
2013-07-12 23:37:00,78.8,69.8,29.81,West,279,0.0,5.0,74,0.00,,,0.00,0.0,meteohub,2013-07-13 04:37:00,
2013-07-12 23:42:00,78.6,70.3,29.81,WNW,289,0.0,3.0,76,0.00,,,0.00,0.0,meteohub,2013-07-13 04:42:00,
2013-07-12 23:47:00,78.4,70.2,29.81,WNW,290,0.0,3.0,76,0.00,,,0.00,0.0,meteohub,2013-07-13 04:47:00,
2013-07-12 23:52:00,78.4,70.7,29.81,WNW,294,0.0,3.0,77,0.00,,,0.00,0.0,meteohub,2013-07-13 04:52:00,
2013-07-12 23:57:00,78.3,70.0,29.81,WNW,294,0.0,1.0,76,0.00,,,0.00,0.0,meteohub,2013-07-13 04:57:00,